Location: Stoke Bliss
(52.2667°N, 2.5167°W)
Time: 19:02:50
(UTC+00:00)

Cosmos 1844 Rocket - Pass Details

Date: 03 March 2021
Orbit: 826 x 843 km, 71.0° (Epoch: 17 April)

Event Time Altitude Azimuth Distance (km) Brightness Sun altitude
Rises 18:19:27 0° 330° (NNW) 3,378 6.2 -4.8°
Reaches altitude 10° 18:21:59 10° 336° (NNW) 2,441 5.4 -5.2°
Maximum altitude 18:27:24 49° 51° (NE) 1,063 3.0 -6.0°
Drops below altitude 10° 18:32:47 10° 126° (SE) 2,428 4.6 -6.8°
Sets 18:35:18 0° 132° (SE) 3,359 5.4 -7.2°
